Nausori, Fiji

9:19 PM +12 on February 18, 2018 (GMT +1200)
Nausori International

Weather History for NFNA - January, 2001

Change the Weather History Date:

Friday, January 12, 2001

  Actual Average Record
Temperature  
Mean Temperature 83 °F -  
Max Temperature 91 °F 87 °F - ()
Min Temperature 75 °F 75 °F - ()
Cooling Degree Days 18    
Growing Degree Days 33 (Base 50)    
Moisture  
Dew Point 75 °F    
Average Humidity 79    
Maximum Humidity 100    
Minimum Humidity 55    
Precipitation  
Precipitation 0.00 in 0.40 in - ()
Sea Level Pressure  
Sea Level Pressure 29.82 in    
Wind  
Wind Speed 1 mph ()    
Max Wind Speed 9 mph    
Max Gust Speed -    
Visibility 18.6 miles    
Events      
T = Trace of Precipitation, MM = Missing Value Source: Averaged Metar Reports

Daily Weather History Graph

Daily Weather History Graph

Search for Another Location

Airport or City:

Trip Planner

Search our weather history database for the weather conditions in past years. The results will help you decide how hot, cold, wet, or windy it might be!

Date:

Astronomy

Jan. 12, 2001 Rise Set
Actual Time 5:40 AM +12 6:47 PM +12
Civil Twilight 5:16 AM +12 7:11 PM +12
Nautical Twilight 4:48 AM +12 7:39 PM +12
Astronomical Twilight 4:19 AM +12 8:08 PM +12
Moon 9:04 PM +12 (1/12) 7:47 AM +12 (1/12)
Length of Visible Light 13h 54m
Length of Day
13h 07m
Waning Gibbous, 93% of the Moon is Illuminated
Jan 12
Waning Gibbous
Jan 17
Last Quarter
Jan 25
New
Feb 2
First Quarter
Feb 8
Full

Hourly Weather History & Observations

Time (+12) Temp. Heat Index Dew Point Humidity Pressure Visibility Wind Dir Wind Speed Gust Speed Precip Events Conditions
12:00 AM 77.0 °F - 75.2 °F 94% 29.83 in 24.9 mi Calm Calm - N/A   Scattered Clouds
1:00 AM 75.2 °F - 75.2 °F 100% 29.83 in 24.9 mi Calm Calm - N/A   Scattered Clouds
2:00 AM 75.2 °F - 75.2 °F 100% 29.80 in 24.9 mi Calm Calm - N/A   Partly Cloudy
3:00 AM 75.2 °F - 75.2 °F 100% 29.80 in 24.9 mi Calm Calm - N/A   Mostly Cloudy
4:00 AM 75.2 °F - 73.4 °F 94% 29.80 in 24.9 mi Calm Calm - N/A   Mostly Cloudy
5:00 AM 75.2 °F - 73.4 °F 94% 29.80 in 24.9 mi Calm Calm - N/A   Scattered Clouds
6:00 AM 75.2 °F - 73.4 °F 94% 29.83 in 24.9 mi Calm Calm - N/A   Scattered Clouds
7:00 AM 75.2 °F - 73.4 °F 94% 29.83 in 31.1 mi Calm Calm - N/A   Scattered Clouds
8:00 AM 80.6 °F 87.1 °F 77.0 °F 89% 29.83 in 31.1 mi Calm Calm - N/A   Partly Cloudy
9:00 AM 86.0 °F 96.9 °F 77.0 °F 74% 29.83 in 31.1 mi Calm Calm - N/A   Scattered Clouds
10:00 AM 87.8 °F 99.7 °F 77.0 °F 70% 29.86 in 31.1 mi Calm Calm - N/A   Scattered Clouds
11:00 AM 89.6 °F 99.8 °F 75.2 °F 62% 29.83 in 31.1 mi NE 4.6 mph - N/A   Scattered Clouds
12:00 PM 89.6 °F 99.8 °F 75.2 °F 62% 29.83 in 31.1 mi NNE 4.6 mph - N/A   Partly Cloudy
1:00 PM 89.6 °F 99.8 °F 75.2 °F 62% 29.80 in 31.1 mi NNE 5.8 mph - N/A   Partly Cloudy
2:00 PM 91.4 °F 100.1 °F 73.4 °F 55% 29.80 in 31.1 mi NE 5.8 mph - N/A   Partly Cloudy
3:00 PM 91.4 °F 100.1 °F 73.4 °F 55% 29.80 in 31.1 mi NNE 5.8 mph - N/A   Partly Cloudy
4:00 PM 89.6 °F 96.2 °F 71.6 °F 55% 29.77 in 31.1 mi NE 9.2 mph - N/A   Mostly Cloudy
5:00 PM 86.0 °F 93.4 °F 73.4 °F 66% 29.80 in 31.1 mi ENE 5.8 mph - N/A   Mostly Cloudy
6:00 PM 84.2 °F 89.6 °F 71.6 °F 66% 29.80 in 31.1 mi Calm Calm - N/A   Mostly Cloudy
7:00 PM 84.2 °F 90.9 °F 73.4 °F 70% 29.83 in 31.1 mi Calm Calm - N/A   Mostly Cloudy
8:00 PM 82.4 °F 89.5 °F 75.2 °F 79% 29.86 in 18.6 mi Calm Calm - N/A   Mostly Cloudy
9:00 PM 80.6 °F 86.2 °F 75.2 °F 84% 29.86 in 18.6 mi Calm Calm - N/A   Scattered Clouds
10:00 PM 80.6 °F 87.1 °F 77.0 °F 89% 29.86 in 18.6 mi Calm Calm - N/A   Mostly Cloudy
11:00 PM 80.6 °F 87.1 °F 77.0 °F 89% 29.86 in 24.9 mi Calm Calm - N/A   Mostly Cloudy